GOES 14

Last updated on Mon Sep 07 2026 00:02:48 GMT+0000 (Coordinated Universal Time)

1 35491U 09033A 26249.60941507 -.00000194 00000+0 00000+0 0 9995 2 35491 1.8935 81.9074 0002149 93.0324 119.2123 1.00072456 7401
UTC large
Height (km)
Speed (km/s)
/
Latitude / Longitude
Inclination (degrees)
Orbital Period (minutes)
Azimuth
Elevation
Range (km)
Doppler Factor

Next 0 passes for location: London (51.5072 / 0.1276)

No passes found over London.
GOES 14